Year,Month,Day,Hour,Minute,Value (Times are PST for temperature in C)
2013,09,11,00,00,14.00
2013,09,11,00,01,14.00
2013,09,11,00,02,14.00
2013,09,11,00,03,14.00
2013,09,11,00,04,14.00
2013,09,11,00,05,14.00
2013,09,11,00,06,14.00
2013,09,11,00,07,14.00
2013,09,11,00,08,14.00
2013,09,11,00,09,14.00
2013,09,11,00,10,14.00
2013,09,11,00,11,13.90
2013,09,11,00,12,13.90
2013,09,11,00,13,13.90
2013,09,11,00,14,13.90
2013,09,11,00,15,13.90
2013,09,11,00,16,13.90
2013,09,11,00,17,13.90
2013,09,11,00,18,13.90
2013,09,11,00,19,13.90
2013,09,11,00,20,13.80
2013,09,11,00,21,13.80
2013,09,11,00,22,13.80
2013,09,11,00,23,13.80
2013,09,11,00,24,13.80
2013,09,11,00,25,13.80
2013,09,11,00,26,13.80
2013,09,11,00,27,13.80
2013,09,11,00,28,13.80
2013,09,11,00,29,13.80
2013,09,11,00,30,13.80
2013,09,11,00,31,13.70
2013,09,11,00,32,13.70
2013,09,11,00,33,13.70
2013,09,11,00,34,13.70
2013,09,11,00,35,13.70
2013,09,11,00,36,13.70
2013,09,11,00,37,13.70
2013,09,11,00,38,13.70
2013,09,11,00,39,13.70
2013,09,11,00,40,13.70
2013,09,11,00,41,13.70
2013,09,11,00,42,13.70
2013,09,11,00,43,13.60
2013,09,11,00,44,13.60
2013,09,11,00,45,13.60
2013,09,11,00,46,13.60
2013,09,11,00,47,13.60
2013,09,11,00,48,13.60
2013,09,11,00,49,13.60
2013,09,11,00,50,13.60
2013,09,11,00,51,13.60
2013,09,11,00,52,13.60
2013,09,11,00,53,13.50
2013,09,11,00,54,13.50
2013,09,11,00,55,13.50
2013,09,11,00,56,13.50
2013,09,11,00,57,13.50
2013,09,11,00,58,13.50
2013,09,11,00,59,13.50
2013,09,11,01,00,13.50
2013,09,11,01,01,13.40
2013,09,11,01,02,13.40
2013,09,11,01,03,13.40
2013,09,11,01,04,13.40
2013,09,11,01,05,13.40
2013,09,11,01,06,13.40
2013,09,11,01,07,13.40
2013,09,11,01,08,13.40
2013,09,11,01,09,13.40
2013,09,11,01,10,13.40
2013,09,11,01,11,13.40
2013,09,11,01,12,13.40
2013,09,11,01,13,13.40
2013,09,11,01,14,13.40
2013,09,11,01,15,13.40
2013,09,11,01,16,13.40
2013,09,11,01,17,13.40
2013,09,11,01,18,13.40
2013,09,11,01,19,13.40
2013,09,11,01,20,13.40
2013,09,11,01,21,13.30
2013,09,11,01,22,13.30
2013,09,11,01,23,13.30
2013,09,11,01,24,13.30
2013,09,11,01,25,13.30
2013,09,11,01,26,13.30
2013,09,11,01,27,13.30
2013,09,11,01,28,13.30
2013,09,11,01,29,13.30
2013,09,11,01,30,13.20
2013,09,11,01,31,13.20
2013,09,11,01,32,13.20
2013,09,11,01,33,13.20
2013,09,11,01,34,13.20
2013,09,11,01,35,13.20
2013,09,11,01,36,13.20
2013,09,11,01,37,13.20
2013,09,11,01,38,13.20
2013,09,11,01,39,13.20
2013,09,11,01,40,13.20
2013,09,11,01,41,13.20
2013,09,11,01,42,13.20
2013,09,11,01,43,13.20
2013,09,11,01,44,13.10
2013,09,11,01,45,13.10
2013,09,11,01,46,13.10
2013,09,11,01,47,13.10
2013,09,11,01,48,13.10
2013,09,11,01,49,13.10
2013,09,11,01,50,13.00
2013,09,11,01,51,13.00
2013,09,11,01,52,13.00
2013,09,11,01,53,13.00
2013,09,11,01,54,13.00
2013,09,11,01,55,12.90
2013,09,11,01,56,12.90
2013,09,11,01,57,12.90
2013,09,11,01,58,12.90
2013,09,11,01,59,12.90
2013,09,11,02,00,12.90
2013,09,11,02,01,12.90
2013,09,11,02,02,12.90
2013,09,11,02,03,12.90
2013,09,11,02,04,12.80
2013,09,11,02,05,12.80
2013,09,11,02,06,12.80
2013,09,11,02,07,12.80
2013,09,11,02,08,12.80
2013,09,11,02,09,12.80
2013,09,11,02,10,12.80
2013,09,11,02,11,12.80
2013,09,11,02,12,12.80
2013,09,11,02,13,12.80
2013,09,11,02,14,12.80
2013,09,11,02,15,12.80
2013,09,11,02,16,12.80
2013,09,11,02,17,12.80
2013,09,11,02,18,12.80
2013,09,11,02,19,12.80
2013,09,11,02,20,12.80
2013,09,11,02,21,12.80
2013,09,11,02,22,12.80
2013,09,11,02,23,12.80
2013,09,11,02,24,12.80
2013,09,11,02,25,12.80
2013,09,11,02,26,12.80
2013,09,11,02,27,12.80
2013,09,11,02,28,12.80
2013,09,11,02,29,12.80
2013,09,11,02,30,12.80
2013,09,11,02,31,12.80
2013,09,11,02,32,12.80
2013,09,11,02,33,12.70
2013,09,11,02,34,12.70
2013,09,11,02,35,12.70
2013,09,11,02,36,12.70
2013,09,11,02,37,12.70
2013,09,11,02,38,12.70
2013,09,11,02,39,12.70
2013,09,11,02,40,12.70
2013,09,11,02,41,12.70
2013,09,11,02,42,12.70
2013,09,11,02,43,12.70
2013,09,11,02,44,12.70
2013,09,11,02,45,12.70
2013,09,11,02,46,12.70
2013,09,11,02,47,12.70
2013,09,11,02,48,12.70
2013,09,11,02,49,12.70
2013,09,11,02,50,12.70
2013,09,11,02,51,12.70
2013,09,11,02,52,12.70
2013,09,11,02,53,12.70
2013,09,11,02,54,12.70
2013,09,11,02,55,12.70
2013,09,11,02,56,12.70
2013,09,11,02,57,12.70
2013,09,11,02,58,12.70
2013,09,11,02,59,12.70
2013,09,11,03,00,12.70
2013,09,11,03,01,12.70
2013,09,11,03,02,12.70
2013,09,11,03,03,12.70
2013,09,11,03,04,12.70
2013,09,11,03,05,12.60
2013,09,11,03,06,12.70
2013,09,11,03,07,12.70
2013,09,11,03,08,12.70
2013,09,11,03,09,12.70
2013,09,11,03,10,12.70
2013,09,11,03,11,12.70
2013,09,11,03,12,12.70
2013,09,11,03,13,12.70
2013,09,11,03,14,12.70
2013,09,11,03,15,12.70
2013,09,11,03,16,12.60
2013,09,11,03,17,12.70
2013,09,11,03,18,12.60
2013,09,11,03,19,12.60
2013,09,11,03,20,12.60
2013,09,11,03,21,12.60
2013,09,11,03,22,12.60
2013,09,11,03,23,12.60
2013,09,11,03,24,12.70
2013,09,11,03,25,12.70
2013,09,11,03,26,12.70
2013,09,11,03,27,12.80
2013,09,11,03,28,12.80
2013,09,11,03,29,12.80
2013,09,11,03,30,12.90
2013,09,11,03,31,12.90
2013,09,11,03,32,13.00
2013,09,11,03,33,13.00
2013,09,11,03,34,13.10
2013,09,11,03,35,13.10
2013,09,11,03,36,13.10
2013,09,11,03,37,13.20
2013,09,11,03,38,13.20
2013,09,11,03,39,13.20
2013,09,11,03,40,13.20
2013,09,11,03,41,13.30
2013,09,11,03,42,13.30
2013,09,11,03,43,13.40
2013,09,11,03,44,13.40
2013,09,11,03,45,13.40
2013,09,11,03,46,13.40
2013,09,11,03,47,13.40
2013,09,11,03,48,13.40
2013,09,11,03,49,13.50
2013,09,11,03,50,13.50
2013,09,11,03,51,13.50
2013,09,11,03,52,13.50
2013,09,11,03,53,13.50
2013,09,11,03,54,13.50
2013,09,11,03,55,13.50
2013,09,11,03,56,13.50
2013,09,11,03,57,13.50
2013,09,11,03,58,13.50
2013,09,11,03,59,13.50
2013,09,11,04,00,13.50
2013,09,11,04,01,13.50
2013,09,11,04,02,13.50
2013,09,11,04,03,13.60
2013,09,11,04,04,13.60
2013,09,11,04,05,13.60
2013,09,11,04,06,13.70
2013,09,11,04,07,13.70
2013,09,11,04,08,13.80
2013,09,11,04,09,13.80
2013,09,11,04,10,13.80
2013,09,11,04,11,13.90
2013,09,11,04,12,13.90
2013,09,11,04,13,14.00
2013,09,11,04,14,14.10
2013,09,11,04,15,14.10
2013,09,11,04,16,14.20
2013,09,11,04,17,14.30
2013,09,11,04,18,14.40
2013,09,11,04,19,14.40
2013,09,11,04,20,14.50
2013,09,11,04,21,14.60
2013,09,11,04,22,14.70
2013,09,11,04,23,14.80
2013,09,11,04,24,14.90
2013,09,11,04,25,14.90
2013,09,11,04,26,14.90
2013,09,11,04,27,15.00
2013,09,11,04,28,15.00
2013,09,11,04,29,15.10
2013,09,11,04,30,15.20
2013,09,11,04,31,15.20
2013,09,11,04,32,15.30
2013,09,11,04,33,15.40
2013,09,11,04,34,15.50
2013,09,11,04,35,15.60
2013,09,11,04,36,15.70
2013,09,11,04,37,15.80
2013,09,11,04,38,15.90
2013,09,11,04,39,16.00
2013,09,11,04,40,16.00
2013,09,11,04,41,16.10
2013,09,11,04,42,16.20
2013,09,11,04,43,16.30
2013,09,11,04,44,16.40
2013,09,11,04,45,16.40
2013,09,11,04,46,16.50
2013,09,11,04,47,16.50
2013,09,11,04,48,16.60
2013,09,11,04,49,16.60
2013,09,11,04,50,16.70
2013,09,11,04,51,16.70
2013,09,11,04,52,16.70
2013,09,11,04,53,16.70
2013,09,11,04,54,16.70
2013,09,11,04,55,16.80
2013,09,11,04,56,16.80
2013,09,11,04,57,16.80
2013,09,11,04,58,16.80
2013,09,11,04,59,16.90
2013,09,11,05,00,16.90
2013,09,11,05,01,17.00
2013,09,11,05,02,17.00
2013,09,11,05,03,17.10
2013,09,11,05,04,17.10
2013,09,11,05,05,17.10
2013,09,11,05,06,17.00
2013,09,11,05,07,17.00
2013,09,11,05,08,17.00
2013,09,11,05,09,16.90
2013,09,11,05,10,16.90
2013,09,11,05,11,16.90
2013,09,11,05,12,16.90
2013,09,11,05,13,16.80
2013,09,11,05,14,16.80
2013,09,11,05,15,16.80
2013,09,11,05,16,16.70
2013,09,11,05,17,16.70
2013,09,11,05,18,16.70
2013,09,11,05,19,16.70
2013,09,11,05,20,16.60
2013,09,11,05,21,16.60
2013,09,11,05,22,16.70
2013,09,11,05,23,16.70
2013,09,11,05,24,16.70
2013,09,11,05,25,16.70
2013,09,11,05,26,16.60
2013,09,11,05,27,16.60
2013,09,11,05,28,16.60
2013,09,11,05,29,16.60
2013,09,11,05,30,16.60
2013,09,11,05,31,16.60
2013,09,11,05,32,16.60
2013,09,11,05,33,16.60
2013,09,11,05,34,16.50
2013,09,11,05,35,16.50
2013,09,11,05,36,16.50
2013,09,11,05,37,16.50
2013,09,11,05,38,16.50
2013,09,11,05,39,16.50
2013,09,11,05,40,16.50
2013,09,11,05,41,16.50
2013,09,11,05,42,16.60
2013,09,11,05,43,16.60
2013,09,11,05,44,16.60
2013,09,11,05,45,16.60
2013,09,11,05,46,16.60
2013,09,11,05,47,16.70
2013,09,11,05,48,16.70
2013,09,11,05,49,16.70
2013,09,11,05,50,16.70
2013,09,11,05,51,16.70
2013,09,11,05,52,16.70
2013,09,11,05,53,16.80
2013,09,11,05,54,16.80
2013,09,11,05,55,16.80
2013,09,11,05,56,16.80
2013,09,11,05,57,16.90
2013,09,11,05,58,16.90
2013,09,11,05,59,17.00
2013,09,11,06,00,17.00
2013,09,11,06,01,17.10
2013,09,11,06,02,17.10
2013,09,11,06,03,17.20
2013,09,11,06,04,17.20
2013,09,11,06,05,17.30
2013,09,11,06,06,17.30
2013,09,11,06,07,17.40
2013,09,11,06,08,17.40
2013,09,11,06,09,17.40
2013,09,11,06,10,17.50
2013,09,11,06,11,17.50
2013,09,11,06,12,17.50
2013,09,11,06,13,17.60
2013,09,11,06,14,17.60
2013,09,11,06,15,17.60
2013,09,11,06,16,17.60
2013,09,11,06,17,17.60
2013,09,11,06,18,17.60
2013,09,11,06,19,17.60
2013,09,11,06,20,17.60
2013,09,11,06,21,17.60
2013,09,11,06,22,17.60
2013,09,11,06,23,17.60
2013,09,11,06,24,17.60
2013,09,11,06,25,17.60
2013,09,11,06,26,17.60
2013,09,11,06,27,17.60
2013,09,11,06,28,17.60
2013,09,11,06,29,17.60
2013,09,11,06,30,17.60
2013,09,11,06,31,17.60
2013,09,11,06,32,17.60
2013,09,11,06,33,17.60
2013,09,11,06,34,17.50
2013,09,11,06,35,17.50
2013,09,11,06,36,17.50
2013,09,11,06,37,17.40
2013,09,11,06,38,17.40
2013,09,11,06,39,17.40
2013,09,11,06,40,17.40
2013,09,11,06,41,17.30
2013,09,11,06,42,17.30
2013,09,11,06,43,17.20
2013,09,11,06,44,17.20
2013,09,11,06,45,17.20
2013,09,11,06,46,17.10
2013,09,11,06,47,17.10
2013,09,11,06,48,17.00
2013,09,11,06,49,17.00
2013,09,11,06,50,16.90
2013,09,11,06,51,16.90
2013,09,11,06,52,16.80
2013,09,11,06,53,16.80
2013,09,11,06,54,16.70
2013,09,11,06,55,16.70
2013,09,11,06,56,16.60
2013,09,11,06,57,16.60
2013,09,11,06,58,16.50
2013,09,11,06,59,16.50
2013,09,11,07,00,16.50
2013,09,11,07,01,16.40
2013,09,11,07,02,16.40
2013,09,11,07,03,16.40
2013,09,11,07,04,16.40
2013,09,11,07,05,16.30
2013,09,11,07,06,16.30
2013,09,11,07,07,16.30
2013,09,11,07,08,16.20
2013,09,11,07,09,16.20
2013,09,11,07,10,16.20
2013,09,11,07,11,16.20
2013,09,11,07,12,16.20
2013,09,11,07,13,16.20
2013,09,11,07,14,16.20
2013,09,11,07,15,16.20
2013,09,11,07,16,16.20
2013,09,11,07,17,16.20
2013,09,11,07,18,16.10
2013,09,11,07,19,16.10
2013,09,11,07,20,16.00
2013,09,11,07,21,16.00
2013,09,11,07,22,16.00
2013,09,11,07,23,15.90
2013,09,11,07,24,15.90
2013,09,11,07,25,15.90
2013,09,11,07,26,15.90
2013,09,11,07,27,15.90
2013,09,11,07,28,15.90
2013,09,11,07,29,15.80
2013,09,11,07,30,15.80
2013,09,11,07,31,15.80
2013,09,11,07,32,15.70
2013,09,11,07,33,15.70
2013,09,11,07,34,15.60
2013,09,11,07,35,15.50
2013,09,11,07,36,15.50
2013,09,11,07,37,15.50
2013,09,11,07,38,15.40
2013,09,11,07,39,15.50
2013,09,11,07,40,15.50
2013,09,11,07,41,15.50
2013,09,11,07,42,15.50
2013,09,11,07,43,15.60
2013,09,11,07,44,15.60
2013,09,11,07,45,15.60
2013,09,11,07,46,15.70
2013,09,11,07,47,15.80
2013,09,11,07,48,15.90
2013,09,11,07,49,16.00
2013,09,11,07,50,16.10
2013,09,11,07,51,16.20
2013,09,11,07,52,16.30
2013,09,11,07,53,16.50
2013,09,11,07,54,16.60
2013,09,11,07,55,16.70
2013,09,11,07,56,16.80
2013,09,11,07,57,16.90
2013,09,11,07,58,17.00
2013,09,11,07,59,17.20
2013,09,11,08,00,17.30
2013,09,11,08,01,17.30
2013,09,11,08,02,17.50
2013,09,11,08,03,17.60
2013,09,11,08,04,17.70
2013,09,11,08,05,17.70
2013,09,11,08,06,17.80
2013,09,11,08,07,17.90
2013,09,11,08,08,17.90
2013,09,11,08,09,18.00
2013,09,11,08,10,18.10
2013,09,11,08,11,18.10
2013,09,11,08,12,18.30
2013,09,11,08,13,18.30
2013,09,11,08,14,18.40
2013,09,11,08,15,18.50
2013,09,11,08,16,18.60
2013,09,11,08,17,18.70
2013,09,11,08,18,18.80
2013,09,11,08,19,18.90
2013,09,11,08,20,19.00
2013,09,11,08,21,19.10
2013,09,11,08,22,19.20
2013,09,11,08,23,19.20
2013,09,11,08,24,19.30
2013,09,11,08,25,19.40
2013,09,11,08,26,19.50
2013,09,11,08,27,19.60
2013,09,11,08,28,19.70
2013,09,11,08,29,19.80
2013,09,11,08,30,19.90
2013,09,11,08,31,20.00
2013,09,11,08,32,20.10
2013,09,11,08,33,20.10
2013,09,11,08,34,20.20
2013,09,11,08,35,20.30
2013,09,11,08,36,20.40
2013,09,11,08,37,20.40
2013,09,11,08,38,20.50
2013,09,11,08,39,20.50
2013,09,11,08,40,20.60
2013,09,11,08,41,20.70
2013,09,11,08,42,20.80
2013,09,11,08,43,20.90
2013,09,11,08,44,20.90
2013,09,11,08,45,21.00
2013,09,11,08,46,21.00
2013,09,11,08,47,21.10
2013,09,11,08,48,21.20
2013,09,11,08,49,21.20
2013,09,11,08,50,21.20
2013,09,11,08,51,21.30
2013,09,11,08,52,21.30
2013,09,11,08,53,21.40
2013,09,11,08,54,21.40
2013,09,11,08,55,21.40
2013,09,11,08,56,21.50
2013,09,11,08,57,21.60
2013,09,11,08,58,21.60
2013,09,11,08,59,21.70
2013,09,11,09,00,21.70
2013,09,11,09,01,21.80
2013,09,11,09,02,21.90
2013,09,11,09,03,21.90
2013,09,11,09,04,22.00
2013,09,11,09,05,22.10
2013,09,11,09,06,22.20
2013,09,11,09,07,22.20
2013,09,11,09,08,22.30
2013,09,11,09,09,22.40
2013,09,11,09,10,22.40
2013,09,11,09,11,22.50
2013,09,11,09,12,22.50
2013,09,11,09,13,22.60
2013,09,11,09,14,22.60
2013,09,11,09,15,22.60
2013,09,11,09,16,22.60
2013,09,11,09,17,22.60
2013,09,11,09,18,22.60
2013,09,11,09,19,22.60
2013,09,11,09,20,22.70
2013,09,11,09,21,22.70
2013,09,11,09,22,22.70
2013,09,11,09,23,22.70
2013,09,11,09,24,22.70
2013,09,11,09,25,22.70
2013,09,11,09,26,22.80
2013,09,11,09,27,22.80
2013,09,11,09,28,22.80
2013,09,11,09,29,22.90
2013,09,11,09,30,23.00
2013,09,11,09,31,23.10
2013,09,11,09,32,23.20
2013,09,11,09,33,23.30
2013,09,11,09,34,23.40
2013,09,11,09,35,23.50
2013,09,11,09,36,23.60
2013,09,11,09,37,23.70
2013,09,11,09,38,23.80
2013,09,11,09,39,23.90
2013,09,11,09,40,24.00
2013,09,11,09,41,24.10
2013,09,11,09,42,24.20
2013,09,11,09,43,24.30
2013,09,11,09,44,24.40
2013,09,11,09,45,24.50
2013,09,11,09,46,24.50
2013,09,11,09,47,24.60
2013,09,11,09,48,24.60
2013,09,11,09,49,24.70
2013,09,11,09,50,24.70
2013,09,11,09,51,24.80
2013,09,11,09,52,24.80
2013,09,11,09,53,24.90
2013,09,11,09,54,24.90
2013,09,11,09,55,25.00
2013,09,11,09,56,25.00
2013,09,11,09,57,25.10
2013,09,11,09,58,25.10
2013,09,11,09,59,25.20
2013,09,11,10,00,25.30
2013,09,11,10,01,25.30
2013,09,11,10,02,25.30
2013,09,11,10,03,25.30
2013,09,11,10,04,25.40
2013,09,11,10,05,25.40
2013,09,11,10,06,25.40
2013,09,11,10,07,25.50
2013,09,11,10,08,25.60
2013,09,11,10,09,25.70
2013,09,11,10,10,25.70
2013,09,11,10,11,25.70
2013,09,11,10,12,25.80
2013,09,11,10,13,25.80
2013,09,11,10,14,25.80
2013,09,11,10,15,25.80
2013,09,11,10,16,25.80
2013,09,11,10,17,25.80
2013,09,11,10,18,25.80
2013,09,11,10,19,25.80
2013,09,11,10,20,25.80
2013,09,11,10,21,25.90
2013,09,11,10,22,25.90
2013,09,11,10,23,25.90
2013,09,11,10,24,25.90
2013,09,11,10,25,26.00
2013,09,11,10,26,26.00
2013,09,11,10,27,26.10
2013,09,11,10,28,26.10
2013,09,11,10,29,26.10
2013,09,11,10,30,26.20
2013,09,11,10,31,26.20
2013,09,11,10,32,26.30
2013,09,11,10,33,26.30
2013,09,11,10,34,26.40
2013,09,11,10,35,26.50
2013,09,11,10,36,26.60
2013,09,11,10,37,26.70
2013,09,11,10,38,26.80
2013,09,11,10,39,26.80
2013,09,11,10,40,26.90
2013,09,11,10,41,26.90
2013,09,11,10,42,27.00
2013,09,11,10,43,27.00
2013,09,11,10,44,27.10
2013,09,11,10,45,27.10
2013,09,11,10,46,27.10
2013,09,11,10,47,27.10
2013,09,11,10,48,27.10
2013,09,11,10,49,27.10
2013,09,11,10,50,27.00
2013,09,11,10,51,27.00
2013,09,11,10,52,26.90
2013,09,11,10,53,27.00
2013,09,11,10,54,27.00
2013,09,11,10,55,27.10
2013,09,11,10,56,27.10
2013,09,11,10,57,27.10
2013,09,11,10,58,27.10
2013,09,11,10,59,27.10
2013,09,11,11,00,27.10
2013,09,11,11,01,27.20
2013,09,11,11,02,27.30
2013,09,11,11,03,27.30
2013,09,11,11,04,27.30
2013,09,11,11,05,27.40
2013,09,11,11,06,27.40
2013,09,11,11,07,27.50
2013,09,11,11,08,27.60
2013,09,11,11,09,27.60
2013,09,11,11,10,27.70
2013,09,11,11,11,27.80
2013,09,11,11,12,27.90
2013,09,11,11,13,27.90
2013,09,11,11,14,27.90
2013,09,11,11,15,27.90
2013,09,11,11,16,28.00
2013,09,11,11,17,28.10
2013,09,11,11,18,28.10
2013,09,11,11,19,28.20
2013,09,11,11,20,28.30
2013,09,11,11,21,28.30
2013,09,11,11,22,28.30
2013,09,11,11,23,28.30
2013,09,11,11,24,28.30
2013,09,11,11,25,28.30
2013,09,11,11,26,28.30
2013,09,11,11,27,28.30
2013,09,11,11,28,28.30
2013,09,11,11,29,28.30
2013,09,11,11,30,28.30
2013,09,11,11,31,28.30
2013,09,11,11,32,28.30
2013,09,11,11,33,28.30
2013,09,11,11,34,28.30
2013,09,11,11,35,28.30
2013,09,11,11,36,28.30
2013,09,11,11,37,28.30
2013,09,11,11,38,28.30
2013,09,11,11,39,28.30
2013,09,11,11,40,28.40
2013,09,11,11,41,28.40
2013,09,11,11,42,28.50
2013,09,11,11,43,28.50
2013,09,11,11,44,28.50
2013,09,11,11,45,28.60
2013,09,11,11,46,28.60
2013,09,11,11,47,28.50
2013,09,11,11,48,28.60
2013,09,11,11,49,28.60
2013,09,11,11,50,28.60
2013,09,11,11,51,28.60
2013,09,11,11,52,28.60
2013,09,11,11,53,28.60
2013,09,11,11,54,28.70
2013,09,11,11,55,28.60
2013,09,11,11,56,28.60
2013,09,11,11,57,28.60
2013,09,11,11,58,28.50
2013,09,11,11,59,28.50
2013,09,11,12,00,28.50
2013,09,11,12,01,28.50
2013,09,11,12,02,28.60
2013,09,11,12,03,28.70
2013,09,11,12,04,28.70
2013,09,11,12,05,28.80
2013,09,11,12,06,28.90
2013,09,11,12,07,28.90
2013,09,11,12,08,28.80
2013,09,11,12,09,28.80
2013,09,11,12,10,28.80
2013,09,11,12,11,28.80
2013,09,11,12,12,28.80
2013,09,11,12,13,28.80
2013,09,11,12,14,28.80
2013,09,11,12,15,28.80
2013,09,11,12,16,28.80
2013,09,11,12,17,28.90
2013,09,11,12,18,28.90
2013,09,11,12,19,29.00
2013,09,11,12,20,29.10
2013,09,11,12,21,29.10
2013,09,11,12,22,29.10
2013,09,11,12,23,29.10
2013,09,11,12,24,29.10
2013,09,11,12,25,29.10
2013,09,11,12,26,29.00
2013,09,11,12,27,29.00
2013,09,11,12,28,28.90
2013,09,11,12,29,28.90
2013,09,11,12,30,28.90
2013,09,11,12,31,28.90
2013,09,11,12,32,28.90
2013,09,11,12,33,28.90
2013,09,11,12,34,29.00
2013,09,11,12,35,29.00
2013,09,11,12,36,29.10
2013,09,11,12,37,29.10
2013,09,11,12,38,29.20
2013,09,11,12,39,29.30
2013,09,11,12,40,29.30
2013,09,11,12,41,29.30
2013,09,11,12,42,29.30
2013,09,11,12,43,29.30
2013,09,11,12,44,29.40
2013,09,11,12,45,29.30
2013,09,11,12,46,29.30
2013,09,11,12,47,29.20
2013,09,11,12,48,29.20
2013,09,11,12,49,29.20
2013,09,11,12,50,29.10
2013,09,11,12,51,29.10
2013,09,11,12,52,29.10
2013,09,11,12,53,29.10
2013,09,11,12,54,29.10
2013,09,11,12,55,29.10
2013,09,11,12,56,29.10
2013,09,11,12,57,29.10
2013,09,11,12,58,29.10
2013,09,11,12,59,29.20
2013,09,11,13,00,29.20
2013,09,11,13,01,29.20
2013,09,11,13,02,29.30
2013,09,11,13,03,29.30
2013,09,11,13,04,29.20
2013,09,11,13,05,29.20
2013,09,11,13,06,29.20
2013,09,11,13,07,29.10
2013,09,11,13,08,29.10
2013,09,11,13,09,29.00
2013,09,11,13,10,29.00
2013,09,11,13,11,28.90
2013,09,11,13,12,28.90
2013,09,11,13,13,28.90
2013,09,11,13,14,28.90
2013,09,11,13,15,28.90
2013,09,11,13,16,29.00
2013,09,11,13,17,29.10
2013,09,11,13,18,29.10
2013,09,11,13,19,29.10
2013,09,11,13,20,29.20
2013,09,11,13,21,29.30
2013,09,11,13,22,29.30
2013,09,11,13,23,29.40
2013,09,11,13,24,29.50
2013,09,11,13,25,29.50
2013,09,11,13,26,29.60
2013,09,11,13,27,29.60
2013,09,11,13,28,29.60
2013,09,11,13,29,29.60
2013,09,11,13,30,29.50
2013,09,11,13,31,29.50
2013,09,11,13,32,29.60
2013,09,11,13,33,29.60
2013,09,11,13,34,29.60
2013,09,11,13,35,29.70
2013,09,11,13,36,29.70
2013,09,11,13,37,29.80
2013,09,11,13,38,29.80
2013,09,11,13,39,29.80
2013,09,11,13,40,29.90
2013,09,11,13,41,29.90
2013,09,11,13,42,29.90
2013,09,11,13,43,30.00
2013,09,11,13,44,30.10
2013,09,11,13,45,30.20
2013,09,11,13,46,30.20
2013,09,11,13,47,30.20
2013,09,11,13,48,30.20
2013,09,11,13,49,30.20
2013,09,11,13,50,30.20
2013,09,11,13,51,30.20
2013,09,11,13,52,30.20
2013,09,11,13,53,30.20
2013,09,11,13,54,30.20
2013,09,11,13,55,30.20
2013,09,11,13,56,30.10
2013,09,11,13,57,30.10
2013,09,11,13,58,30.10
2013,09,11,13,59,30.10
2013,09,11,14,00,30.10
2013,09,11,14,01,30.20
2013,09,11,14,02,30.20
2013,09,11,14,03,30.20
2013,09,11,14,04,30.30
2013,09,11,14,05,30.30
2013,09,11,14,06,30.30
2013,09,11,14,07,30.30
2013,09,11,14,08,30.30
2013,09,11,14,09,30.40
2013,09,11,14,10,30.40
2013,09,11,14,11,30.40
2013,09,11,14,12,30.40
2013,09,11,14,13,30.40
2013,09,11,14,14,30.50
2013,09,11,14,15,30.50
2013,09,11,14,16,30.60
2013,09,11,14,17,30.60
2013,09,11,14,18,30.60
2013,09,11,14,19,30.60
2013,09,11,14,20,30.60
2013,09,11,14,21,30.60
2013,09,11,14,22,30.60
2013,09,11,14,23,30.70
2013,09,11,14,24,30.70
2013,09,11,14,25,30.70
2013,09,11,14,26,30.60
2013,09,11,14,27,30.60
2013,09,11,14,28,30.60
2013,09,11,14,29,30.60
2013,09,11,14,30,30.60
2013,09,11,14,31,30.70
2013,09,11,14,32,30.70
2013,09,11,14,33,30.70
2013,09,11,14,34,30.80
2013,09,11,14,35,30.80
2013,09,11,14,36,30.80
2013,09,11,14,37,30.90
2013,09,11,14,38,31.00
2013,09,11,14,39,31.10
2013,09,11,14,40,31.20
2013,09,11,14,41,31.30
2013,09,11,14,42,31.30
2013,09,11,14,43,31.40
2013,09,11,14,44,31.50
2013,09,11,14,45,31.50
2013,09,11,14,46,31.60
2013,09,11,14,47,31.70
2013,09,11,14,48,31.70
2013,09,11,14,49,31.70
2013,09,11,14,50,31.70
2013,09,11,14,51,31.70
2013,09,11,14,52,31.60
2013,09,11,14,53,31.60
2013,09,11,14,54,31.60
2013,09,11,14,55,31.60
2013,09,11,14,56,31.70
2013,09,11,14,57,31.70
2013,09,11,14,58,31.70
2013,09,11,14,59,31.80
2013,09,11,15,00,31.80
2013,09,11,15,01,31.80
2013,09,11,15,02,31.80
2013,09,11,15,03,31.80
2013,09,11,15,04,31.80
2013,09,11,15,05,31.80
2013,09,11,15,06,31.90
2013,09,11,15,07,31.90
2013,09,11,15,08,31.90
2013,09,11,15,09,32.00
2013,09,11,15,10,32.00
2013,09,11,15,11,32.00
2013,09,11,15,12,32.10
2013,09,11,15,13,32.10
2013,09,11,15,14,32.10
2013,09,11,15,15,32.10
2013,09,11,15,16,32.10
2013,09,11,15,17,32.10
2013,09,11,15,18,32.10
2013,09,11,15,19,32.10
2013,09,11,15,20,32.10
2013,09,11,15,21,32.10
2013,09,11,15,22,32.10
2013,09,11,15,23,32.10
2013,09,11,15,24,32.10
2013,09,11,15,25,32.10
2013,09,11,15,26,32.10
2013,09,11,15,27,32.20
2013,09,11,15,28,32.20
2013,09,11,15,29,32.20
2013,09,11,15,30,32.30
2013,09,11,15,31,32.30
2013,09,11,15,32,32.30
2013,09,11,15,33,32.30
2013,09,11,15,34,32.30
2013,09,11,15,35,32.30
2013,09,11,15,36,32.30
2013,09,11,15,37,32.40
2013,09,11,15,38,32.30
2013,09,11,15,39,32.30
2013,09,11,15,40,32.30
2013,09,11,15,41,32.20
2013,09,11,15,42,32.20
2013,09,11,15,43,32.30
2013,09,11,15,44,32.30
2013,09,11,15,45,32.30
2013,09,11,15,46,32.30
2013,09,11,15,47,32.20
2013,09,11,15,48,32.20
2013,09,11,15,49,32.10
2013,09,11,15,50,32.00
2013,09,11,15,51,31.90
2013,09,11,15,52,31.90
2013,09,11,15,53,31.90
2013,09,11,15,54,31.90
2013,09,11,15,55,31.90
2013,09,11,15,56,31.90
2013,09,11,15,57,31.90
2013,09,11,15,58,31.90
2013,09,11,15,59,31.90
2013,09,11,16,00,31.90
2013,09,11,16,01,31.90
2013,09,11,16,02,32.00
2013,09,11,16,03,32.00
2013,09,11,16,04,32.10
2013,09,11,16,05,32.10
2013,09,11,16,06,32.10
2013,09,11,16,07,32.20
2013,09,11,16,08,32.20
2013,09,11,16,09,32.20
2013,09,11,16,10,32.20
2013,09,11,16,11,32.20
2013,09,11,16,12,32.10
2013,09,11,16,13,32.10
2013,09,11,16,14,32.10
2013,09,11,16,15,32.10
2013,09,11,16,16,32.10
2013,09,11,16,17,32.20
2013,09,11,16,18,32.20
2013,09,11,16,19,32.30
2013,09,11,16,20,32.30
2013,09,11,16,21,32.40
2013,09,11,16,22,32.40
2013,09,11,16,23,32.40
2013,09,11,16,24,32.50
2013,09,11,16,25,32.50
2013,09,11,16,26,32.60
2013,09,11,16,27,32.60
2013,09,11,16,28,32.70
2013,09,11,16,29,32.70
2013,09,11,16,30,32.70
2013,09,11,16,31,32.70
2013,09,11,16,32,32.80
2013,09,11,16,33,32.80
2013,09,11,16,34,32.80
2013,09,11,16,35,32.80
2013,09,11,16,36,32.80
2013,09,11,16,37,32.90
2013,09,11,16,38,32.90
2013,09,11,16,39,32.90
2013,09,11,16,40,32.90
2013,09,11,16,41,33.00
2013,09,11,16,42,33.00
2013,09,11,16,43,33.00
2013,09,11,16,44,33.10
2013,09,11,16,45,33.10
2013,09,11,16,46,33.10
2013,09,11,16,47,33.10
2013,09,11,16,48,33.10
2013,09,11,16,49,33.10
2013,09,11,16,50,33.10
2013,09,11,16,51,33.10
2013,09,11,16,52,33.10
2013,09,11,16,53,33.10
2013,09,11,16,54,33.10
2013,09,11,16,55,33.10
2013,09,11,16,56,33.10
2013,09,11,16,57,33.10
2013,09,11,16,58,33.10
2013,09,11,16,59,33.10
2013,09,11,17,00,33.10
2013,09,11,17,01,33.20
2013,09,11,17,02,33.10
2013,09,11,17,03,33.10
2013,09,11,17,04,33.10
2013,09,11,17,05,33.10
2013,09,11,17,06,33.10
2013,09,11,17,07,33.10
2013,09,11,17,08,33.10
2013,09,11,17,09,33.10
2013,09,11,17,10,33.10
2013,09,11,17,11,33.10
2013,09,11,17,12,33.10
2013,09,11,17,13,33.10
2013,09,11,17,14,33.00
2013,09,11,17,15,33.00
2013,09,11,17,16,33.00
2013,09,11,17,17,33.00
2013,09,11,17,18,33.00
2013,09,11,17,19,33.00